Theta_e
291 292 294 294 294 293 292 292 292 291 292 292 289 290 293 289 286 286 290 289 287 291 291 293 293 291 290 291 291 291 289 288 287 288 290 291 291 291 290 292 292 292 292 292 292 291 291 289 290 290 290 290 289 290 290 293 293 294 296 298 297 296 293 294 294 294 294 295 295 296 295 296 294 294 293 292 290 290 292 291 291 291 291 292 292 293 292
289 291 292 293 292 292 291 291 292 293 292 292 293 293 294 293 290 292 293 290 290 293 294 296 296 293 291 291 288 287 289 289 289 288 289 291 292 292 293 293 293 293 293 292 292 292 290 290 291 291 291 291 292 293 293 293 294 294 296 298 298 298 297 297 295 295 294 294 295 293 293 293 292 290 289 288 289 289 290 289 289 289 290 290 291 292 292
286 289 291 292 293 292 289 291 292 292 292 292 293 293 293 293 293 294 293 292 291 296 294 296 296 298 298 292 289 290 289 289 289 289 290 290 291 292 292 292 292 292 291 291 290 291 292 291 291 293 294 293 292 292 293 293 295 296 297 298 298 298 298 297 295 295 295 294 292 292 293 291 289 289 289 288 288 288 288 288 289 289 289 290 289 289 290
285 287 288 290 291 291 290 290 290 291 290 289 291 290 294 292 291 293 292 290 291 296 295 296 294 296 298 299 299 298 297 296 293 291 291 291 292 292 293 292 292 290 290 290 291 292 293 293 293 293 293 293 291 294 294 293 294 295 297 297 298 297 297 296 296 296 295 293 292 291 290 290 289 288 288 288 288 288 288 288 288 287 288 288 288 289 289
285 287 288 288 288 287 286 287 290 292 292 293 294 295 295 294 295 291 289 290 297 295 295 296 294 294 295 296 298 299 300 300 296 295 297 298 296 295 294 293 292 291 291 292 293 293 294 295 294 294 295 293 294 295 295 294 293 295 296 297 297 297 296 296 296 295 293 292 292 290 290 289 288 288 288 288 288 288 288 287 287 288 288 288 288 288 289
285 285 285 287 285 280 282 294 296 295 292 293 291 291 293 295 295 294 297 297 294 292 296 296 295 293 296 297 299 300 301 300 297 295 295 296 297 295 293 292 292 292 291 292 293 294 295 296 296 296 294 296 297 295 293 291 293 294 295 295 296 295 295 296 295 294 292 291 291 290 289 288 288 288 288 289 288 287 287 288 288 288 288 288 288 288 289
278 284 286 284 279 281 293 297 297 297 297 296 294 294 295 296 296 296 296 297 297 293 294 295 296 296 296 296 297 298 296 297 297 297 295 294 294 294 292 291 291 290 291 292 293 293 293 294 292 291 292 293 290 290 291 292 292 293 294 295 295 294 294 294 293 293 292 291 290 289 288 288 288 288 288 288 287 287 288 288 288 288 288 287 288 288 288
285 284 284 278 279 288 293 294 296 298 297 296 294 292 295 296 296 296 295 297 298 296 294 293 294 294 294 294 295 298 298 295 297 295 295 295 294 294 293 292 293 293 291 291 293 294 295 293 291 293 294 292 291 290 289 291 290 291 293 294 294 293 293 293 293 292 292 291 290 289 288 288 288 288 287 287 287 287 287 287 286 287 287 287 287 287 287
282 283 284 284 289 287 288 289 290 293 292 292 291 287 291 296 296 296 296 297 298 298 299 296 290 290 290 292 297 297 293 292 292 295 296 296 296 296 296 294 294 295 294 293 293 294 293 293 293 293 293 291 292 289 289 289 289 291 292 293 292 292 292 293 292 292 292 291 290 289 288 288 288 288 287 287 287 287 287 287 286 287 286 286 286 286 286
288 284 282 284 284 281 285 292 295 299 297 295 294 290 290 295 297 298 297 297 298 297 298 291 289 290 289 293 296 297 294 295 295 292 294 295 296 296 296 295 294 293 292 292 291 292 291 292 294 294 291 291 291 290 289 288 289 290 290 292 292 292 292 292 292 292 292 291 289 289 288 288 288 288 288 288 287 287 287 287 286 286 286 286 286 286 286
287 285 282 282 281 285 292 291 292 292 294 295 294 288 287 294 296 298 298 297 298 297 296 289 290 291 290 292 296 294 298 296 295 296 295 294 295 295 296 296 295 291 291 291 292 290 289 291 293 290 290 290 291 291 290 289 289 290 290 291 291 291 292 292 292 292 291 291 290 289 288 288 288 287 287 287 287 287 287 287 286 286 286 286 285 285 285
286 285 284 282 286 287 288 291 291 292 296 297 292 282 283 295 296 297 297 297 297 296 294 292 293 293 291 293 291 296 297 299 299 300 300 299 296 295 296 296 294 292 290 288 288 289 291 293 293 290 289 291 291 292 290 289 289 290 291 291 291 291 292 292 292 291 291 290 289 289 288 288 288 288 287 287 286 286 286 287 286 286 286 286 285 285 285
286 286 284 285 286 290 288 291 293 295 297 295 286 280 289 292 296 297 297 296 297 297 296 294 293 296 299 301 298 294 294 295 297 299 300 301 301 299 298 298 292 289 289 291 292 292 293 294 291 289 290 291 291 291 289 289 289 292 291 290 290 291 291 291 291 291 290 290 289 289 289 288 288 287 287 287 286 286 286 286 286 285 285 285 285 285 285
285 286 284 284 287 290 290 290 295 296 293 285 284 294 290 293 293 295 297 296 297 297 296 296 296 299 300 300 299 291 289 295 298 298 296 295 295 296 295 293 290 289 287 289 289 289 289 289 289 289 290 291 291 289 288 289 292 291 288 289 290 291 291 291 291 290 289 289 289 289 288 287 287 287 287 286 286 286 286 286 285 285 285 285 285 285 285
285 284 283 282 281 288 293 292 291 295 290 289 292 289 289 288 288 290 292 295 297 295 294 296 297 298 298 297 297 295 292 290 293 295 293 293 294 296 296 292 288 290 290 290 290 291 290 287 288 288 289 290 290 289 289 291 290 287 288 288 290 290 290 290 289 289 288 288 288 288 288 287 287 287 286 286 286 286 286 285 285 285 284 284 284 284 284
283 284 282 283 287 287 292 294 289 292 291 291 289 290 292 287 286 289 290 291 293 292 294 294 295 296 296 296 295 294 292 291 293 293 293 292 291 293 292 292 290 288 291 291 291 290 286 286 287 288 289 290 289 289 290 288 286 286 287 288 289 289 288 289 288 288 288 288 288 287 287 287 287 286 286 286 286 286 286 286 285 284 284 284 284 283 283
286 285 288 289 288 290 294 292 290 296 293 287 289 291 290 289 289 285 288 290 290 292 293 293 293 292 293 295 296 295 294 292 293 294 295 295 292 290 290 290 287 287 290 290 291 289 285 285 287 288 289 290 290 289 288 285 287 286 287 288 288 288 288 288 288 288 287 287 287 287 287 287 287 286 286 286 285 285 285 285 285 284 283 283 283 283 283
289 291 293 291 290 289 290 289 288 289 290 287 286 290 291 287 286 286 289 288 290 290 290 291 289 291 294 293 294 293 291 291 292 292 292 292 289 287 286 287 288 289 289 289 289 289 286 285 286 287 288 289 289 290 286 286 286 287 287 288 288 288 288 288 287 287 287 287 287 287 287 287 287 287 286 286 286 285 285 285 285 284 283 283 283 283 282
288 285 293 293 292 288 288 290 289 288 286 286 286 288 288 287 285 285 286 287 287 287 286 290 292 292 291 291 291 288 288 290 291 291 291 291 290 289 288 290 289 288 287 288 288 288 288 283 283 284 286 286 288 284 285 286 286 287 287 288 288 287 287 287 287 287 287 287 287 286 286 286 286 286 286 286 285 285 285 284 284 284 283 283 282 282 280
286 287 290 289 289 290 293 294 293 292 290 290 287 287 286 286 286 285 284 285 285 285 287 287 287 290 289 289 290 289 288 289 290 290 289 289 289 286 285 285 284 285 286 288 288 287 287 283 283 284 284 285 283 284 284 286 287 287 287 288 288 287 287 287 287 287 287 284 285 286 286 286 286 285 286 286 285 285 285 284 284 283 283 282 281 279 276
287 288 288 289 287 289 289 286 286 290 292 291 292 293 291 285 287 288 286 283 286 286 288 286 286 286 288 287 287 288 288 286 287 288 288 288 287 285 284 283 282 287 287 287 287 286 287 283 282 282 281 280 280 283 284 285 287 287 287 286 287 287 287 287 287 286 286 286 286 286 286 285 285 285 285 285 285 283 282 282 284 283 282 280 277 275 273
284 285 287 287 284 284 287 288 291 291 293 293 293 292 291 290 290 291 291 293 287 284 284 285 286 287 289 288 285 286 287 288 288 287 286 285 284 283 282 281 281 283 283 286 285 284 283 279 280 280 279 278 279 281 283 285 286 287 286 286 285 285 285 285 285 284 284 285 285 285 285 284 282 280 279 283 283 282 277 279 282 282 281 273 273 272 272
285 288 287 289 291 290 289 290 290 291 292 291 292 292 293 294 294 292 291 290 292 292 289 284 285 286 287 289 285 284 285 287 287 286 285 285 283 283 279 280 281 282 282 280 280 281 279 276 277 277 277 276 278 279 281 283 285 286 285 285 284 283 283 283 282 283 283 283 283 284 283 282 281 279 277 276 283 282 281 280 282 283 283 283 281 279 274
291 288 286 286 289 289 287 287 288 289 290 291 292 292 292 292 293 294 293 292 292 293 294 293 286 286 286 286 285 286 286 285 284 283 281 282 282 281 280 283 283 282 281 281 282 282 278 276 276 276 276 276 277 277 279 281 283 284 284 284 283 282 282 281 280 281 282 282 281 281 279 278 278 277 276 276 275 282 283 283 283 283 283 284 283 283 283
290 289 288 287 289 291 290 287 288 289 288 289 290 291 292 292 292 292 292 293 292 291 292 293 294 288 286 286 284 286 287 284 282 282 281 281 281 281 281 280 282 283 283 281 279 277 276 274 274 275 276 275 273 275 277 279 281 282 282 283 282 281 281 280 280 279 279 279 279 278 277 276 275 276 276 276 276 275 277 283 283 283 283 284 284 284 284
292 289 290 289 286 289 288 288 288 287 286 286 288 290 291 290 292 291 291 292 293 293 291 291 291 290 284 286 284 283 282 283 280 279 280 281 278 279 281 282 281 279 277 276 276 274 272 272 274 275 276 272 271 272 274 277 279 280 280 280 280 280 279 279 278 278 277 277 277 276 276 276 275 275 275 276 276 276 275 274 274 278 280 281 281 282 282
289 288 288 289 290 291 290 289 291 287 288 289 290 292 293 293 291 291 291 290 289 289 289 290 288 286 282 282 283 281 283 281 278 279 281 280 281 281 279 278 277 277 276 277 276 275 273 273 273 273 273 268 268 269 271 276 277 277 277 277 277 276 276 276 277 277 276 276 276 275 275 275 275 275 274 273 274 275 275 274 273 272 269 271 277 280 277
289 288 288 288 288 289 289 287 288 288 288 289 289 289 291 291 290 290 290 290 290 289 288 285 285 282 284 280 280 280 278 278 282 280 280 280 277 273 273 274 275 276 276 276 275 273 273 272 271 271 270 266 267 267 270 275 276 276 276 276 276 276 276 276 275 275 275 275 275 275 275 274 274 274 273 273 273 272 272 272 272 271 268 268 268 274 277
289 290 289 289 290 291 290 290 290 289 287 288 288 288 288 289 290 290 290 290 290 289 288 288 281 282 285 281 280 282 281 280 280 280 279 274 272 272 272 272 273 274 275 274 273 272 271 270 270 271 269 265 265 266 271 275 276 275 275 275 275 275 275 274 274 274 274 274 274 273 274 272 272 272 272 272 271 271 271 271 270 268 268 267 269 271 272
288 289 289 290 291 289 288 289 290 290 290 289 288 289 288 287 288 289 291 291 290 289 290 288 283 282 278 278 279 282 282 281 280 275 272 271 270 270 272 272 272 272 272 272 272 271 271 269 269 269 267 265 266 267 272 274 274 274 274 274 275 275 274 273 273 273 273 272 273 273 272 271 271 272 272 271 271 271 271 270 270 269 269 268 270 266 267
286 285 283 285 286 287 287 288 289 290 290 290 288 288 289 287 286 287 289 290 290 289 289 287 284 280 278 280 277 274 274 273 272 271 270 269 269 269 270 273 275 274 273 272 270 270 269 268 267 266 264 263 265 268 271 273 273 273 273 273 272 273 273 274 274 273 273 272 272 272 271 271 271 271 271 271 270 269 269 268 268 267 266 265 265 265 265
283 280 278 280 281 282 285 287 288 289 289 289 288 288 288 289 288 288 289 289 290 289 288 283 283 283 278 272 272 272 272 271 271 270 270 270 269 268 267 266 268 269 268 268 269 268 268 268 267 264 263 264 266 267 269 271 272 273 273 271 272 272 273 273 273 272 271 271 271 271 271 271 270 270 270 269 269 268 267 268 267 266 265 267 266 265 266
278 279 279 280 281 281 282 284 286 288 288 287 288 289 289 288 288 288 289 288 287 286 285 285 282 277 273 273 272 272 271 270 270 270 270 269 267 266 266 266 266 266 265 265 266 266 266 265 263 263 263 264 265 266 267 269 271 272 272 272 272 272 271 272 272 271 270 270 269 269 269 269 269 269 269 268 268 268 268 267 267 267 266 265 264 264 268
278 282 282 277 275 281 283 285 286 287 288 287 287 286 286 286 286 286 286 284 283 283 283 281 275 274 273 273 272 271 270 271 270 270 269 267 266 265 265 264 264 263 263 264 264 263 262 261 261 262 264 264 265 265 266 267 270 271 271 271 271 271 271 270 270 270 269 268 268 268 268 268 268 268 268 268 268 268 268 267 267 267 266 265 264 265 269
267 267 269 270 272 271 271 272 273 276 278 280 282 284 284 284 283 284 283 283 284 284 278 274 273 273 273 272 271 271 272 273 272 269 267 265 264 264 264 263 264 263 262 262 261 261 262 261 261 262 263 263 264 264 265 266 268 269 267 269 269 269 269 269 269 268 268 268 268 268 268 268 268 268 268 268 267 267 267 267 267 267 266 266 265 265 267
266 266 267 268 269 269 269 269 270 271 273 275 277 279 281 282 282 281 281 281 277 276 275 274 273 273 272 271 271 271 270 269 268 267 265 264 264 265 264 264 263 262 262 261 261 261 262 262 264 264 264 264 264 264 264 265 265 267 267 268 268 268 268 268 267 267 267 268 267 267 267 267 267 267 267 267 266 266 266 266 266 266 266 266 266 265 264
265 266 266 266 267 267 267 267 268 269 270 271 273 275 277 278 278 278 276 275 274 276 275 274 273 273 272 269 269 268 267 267 267 265 265 265 265 264 264 264 264 263 263 260 260 261 261 262 263 263 263 263 263 264 264 265 265 265 266 267 267 267 267 267 266 266 266 266 266 266 266 266 266 266 266 266 266 265 266 266 266 266 266 266 265 264 263
265 266 266 266 266 266 266 267 267 267 267 268 271 271 272 274 274 273 273 273 274 274 275 274 273 271 269 268 267 267 266 266 265 265 265 265 265 264 263 263 263 263 261 258 260 260 261 262 262 262 261 262 263 263 264 265 265 265 265 265 266 266 266 266 266 266 266 266 266 266 266 266 266 266 266 266 266 266 265 265 265 264 264 263 263 263 262
264 266 266 265 266 265 265 265 265 264 265 265 267 269 270 271 271 271 271 272 273 274 274 272 271 270 270 268 267 266 266 266 266 266 265 263 262 260 258 257 258 258 259 261 260 260 261 261 260 260 261 261 263 263 264 264 265 265 265 265 265 265 266 266 265 265 265 266 266 266 266 266 266 265 265 265 265 264 264 264 264 263 262 261 261 261 261
262 264 264 265 264 265 265 264 264 264 265 265 265 266 268 269 269 269 269 270 270 272 272 272 271 270 269 268 266 265 266 265 265 263 262 261 259 258 258 259 259 260 261 261 260 261 261 262 261 261 262 262 263 263 264 264 265 265 265 265 266 266 266 266 266 265 265 265 265 265 265 265 265 264 264 263 263 262 262 262 262 261 260 260 260 260 260
261 263 264 264 264 264 263 264 263 263 263 264 265 266 267 267 268 268 268 269 270 271 271 272 270 269 268 266 265 264 264 264 263 262 262 261 261 261 260 258 260 260 261 261 261 261 261 261 261 262 262 263 263 263 264 264 265 265 265 265 265 265 265 265 265 264 264 264 264 263 263 263 263 263 262 261 261 261 261 260 260 260 259 259 259 259 259
260 262 262 263 263 263 263 263 263 262 261 262 263 266 266 266 267 266 268 268 268 268 268 267 267 267 266 265 264 263 263 263 263 262 262 262 263 261 258 258 260 260 261 260 261 260 260 260 261 261 261 262 262 263 263 264 264 264 264 264 264 264 263 263 263 263 263 262 262 262 262 262 261 261 261 260 260 260 260 259 259 259 258 258 258 258 258
259 260 261 261 261 261 261 261 260 259 260 260 261 263 267 267 267 267 266 266 266 266 265 265 264 264 264 264 263 261 260 260 259 258 258 258 258 260 260 259 260 260 260 260 260 259 259 259 260 260 261 261 262 262 262 262 263 263 262 262 262 262 262 262 262 262 261 261 261 261 260 260 260 260 260 259 259 259 259 258 258 258 258 257 257 257 258
259 260 261 260 260 260 260 259 259 259 257 259 261 263 265 266 266 266 265 265 265 265 264 264 264 263 263 263 262 261 260 260 260 259 258 258 258 258 259 259 260 260 259 259 259 259 259 259 259 260 260 261 261 261 261 261 261 261 261 261 261 261 261 261 261 261 260 260 260 260 260 260 259 259 259 259 258 258 258 258 257 257 257 257 256 256 256
259 260 260 260 259 259 258 258 257 256 257 258 259 260 261 262 263 264 264 264 263 263 263 263 263 263 263 262 261 261 260 260 261 262 260 259 258 257 259 258 259 259 259 259 258 258 258 259 259 259 259 260 260 260 260 260 260 260 260 260 260 260 260 260 260 259 259 259 259 259 259 259 259 258 258 258 258 258 258 257 257 257 257 257 257 256 256
258 260 260 260 260 259 259 258 259 259 259 258 257 257 258 259 260 260 261 261 260 260 260 260 260 259 259 258 258 258 258 257 256 256 257 260 260 258 258 258 258 258 258 258 257 257 258 258 259 259 259 259 259 259 259 259 259 259 259 259 259 259 259 259 259 259 259 259 259 258 258 258 258 257 257 257 257 257 257 258 258 257 257 256 256 256 256
257 258 259 259 259 260 261 261 261 260 259 258 256 255 257 257 257 258 258 258 257 257 257 257 257 258 259 260 260 259 257 256 257 258 257 257 257 257 258 258 258 258 257 257 257 257 257 257 258 258 258 258 258 257 258 258 258 258 258 258 258 258 258 258 258 258 258 258 258 258 258 258 257 257 257 257 257 257 256 257 256 256 256 256 256 256 256
255 255 257 258 259 259 259 258 258 256 256 256 256 256 257 257 257 257 257 257 256 256 256 256 256 256 257 257 256 255 256 260 259 257 257 256 257 257 257 257 257 257 257 257 256 256 257 257 257 257 257 257 256 256 256 256 256 256 257 257 257 257 257 257 257 256 257 257 257 256 256 256 255 255 255 255 255 256 256 255 255 256 256 255 255 255 255
255 255 255 256 257 257 257 257 256 256 256 258 258 258 259 259 259 258 258 258 257 256 256 256 256 256 256 255 255 256 256 256 259 257 257 256 256 256 256 256 256 256 256 256 255 255 256 256 256 256 256 256 256 255 256 256 256 256 256 256 256 256 256 256 256 256 255 255 256 255 255 255 255 255 255 255 255 255 255 255 255 255 255 255 255 255 255
255 255 254 254 253 253 254 255 255 255 256 256 256 258 259 259 257 256 257 256 256 255 255 255 255 255 255 255 256 256 256 256 256 256 256 256 256 256 256 256 256 256 256 255 255 255 255 255 255 255 255 255 255 255 255 255 255 255 255 255 255 255 255 255 256 256 256 255 255 255 255 255 255 255 255 255 255 255 255 255 255 255 256 256 255 255 254
255 254 254 254 254 254 254 254 254 254 255 256 256 257 257 256 255 256 257 257 257 255 254 254 254 254 254 255 255 255 255 256 255 255 255 255 255 255 255 255 255 255 255 254 254 254 254 254 254 254 254 254 254 254 254 254 254 255 254 254 254 254 254 254 255 254 254 254 255 255 255 255 255 254 254 254 255 255 255 255 255 254 254 254 254 253 253
255 255 255 255 255 254 254 254 254 254 254 254 255 256 256 256 255 255 254 255 256 256 256 255 253 253 254 254 254 254 255 255 255 255 255 255 255 254 255 254 254 254 254 254 254 254 254 254 253 253 253 253 253 253 253 254 254 253 253 253 254 254 254 254 254 254 254 254 254 254 254 254 254 254 254 254 254 254 254 254 254 253 253 252 252 252 252
Wind_Speed
6 9 10 14 15 15 17 20 18 20 17 16 18 21 21 6 10 18 17 9 12 12 9 11 11 5 5 7 7 7 5 1 3 3 5 6 6 6 5 8 7 8 9 7 7 7 8 6 7 7 6 6 5 5 5 5 6 8 6 7 6 6 5 6 6 5 4 3 2 1 0 1 1 3 2 1 2 2 2 2 1 2 2 2 2 1 0
7 10 13 12 15 13 11 14 17 18 21 23 24 25 24 18 13 17 17 6 17 16 13 15 7 4 6 5 2 1 1 4 6 6 6 8 8 8 9 9 9 8 8 6 7 7 7 8 8 7 7 8 9 9 9 7 8 7 7 8 8 7 8 7 5 4 4 4 3 4 4 4 4 3 3 3 2 2 1 1 1 1 1 1 1 1 1
8 8 9 14 16 15 13 15 16 16 16 18 19 18 15 10 14 18 19 16 19 11 6 9 6 10 10 4 4 4 5 7 6 7 7 7 8 9 9 7 8 9 6 6 6 7 9 9 10 10 10 9 7 7 7 8 9 8 7 8 8 8 9 6 6 5 5 5 4 5 5 4 4 4 3 3 3 3 2 2 1 1 1 1 1 0 1
7 5 11 14 15 15 16 16 16 16 17 18 17 18 20 18 22 25 23 19 17 12 12 8 7 11 15 18 14 10 11 10 8 7 8 8 9 10 10 10 9 8 7 8 9 11 11 11 11 10 10 9 7 11 9 10 9 7 8 8 9 9 7 6 7 7 6 6 5 5 4 4 5 4 4 4 4 3 3 3 3 2 2 2 1 1 1
11 11 12 14 11 7 9 17 20 23 23 23 23 24 22 18 16 15 16 21 24 8 8 10 11 13 13 14 16 18 18 15 9 9 12 12 10 10 11 11 11 10 10 11 12 12 10 12 12 13 11 9 11 12 11 10 7 9 10 9 9 8 7 8 8 7 6 7 6 5 5 5 4 5 4 4 4 4 5 3 3 4 3 2 2 2 2
9 9 7 8 10 16 19 18 25 27 27 26 22 19 19 17 17 17 19 20 5 8 13 16 10 11 15 16 15 13 15 15 11 12 12 13 15 12 9 9 9 10 7 8 9 12 14 14 14 11 11 14 14 9 7 6 10 10 10 9 8 8 7 8 7 7 7 7 6 6 5 5 5 5 5 6 4 3 3 4 4 4 3 3 3 3 3
6 10 12 10 18 16 14 13 11 16 16 14 21 21 21 20 21 21 22 20 18 7 5 8 10 11 11 9 13 15 13 10 11 15 15 15 15 13 11 9 10 11 11 11 12 11 11 10 8 7 8 9 3 5 7 9 7 9 9 8 8 8 8 8 7 8 8 7 7 6 6 6 6 6 6 5 4 4 5 4 4 5 4 4 3 2 1
5 10 13 11 15 7 3 7 13 12 12 17 16 20 21 23 25 24 25 24 17 9 11 7 5 4 7 7 13 17 14 12 15 12 11 12 13 13 13 12 14 14 12 15 16 15 12 8 7 9 12 9 7 6 6 7 7 7 8 8 8 7 8 9 9 9 9 8 7 7 7 7 7 6 5 6 6 4 3 2 2 2 1 1 2 2 1
10 8 13 12 3 2 1 5 8 15 20 22 23 20 25 21 10 10 17 22 21 19 21 7 3 1 3 8 14 12 7 6 8 11 12 14 15 14 14 13 17 16 16 16 15 12 8 9 9 11 9 9 9 8 8 8 8 8 8 9 10 10 10 9 9 9 9 9 8 8 8 8 7 7 6 6 4 4 4 4 4 4 4 3 2 2 2
7 12 9 8 6 12 10 17 14 21 13 5 6 6 15 9 17 20 21 25 25 22 15 4 5 3 4 14 23 10 12 12 13 10 12 14 13 13 15 16 14 12 9 9 7 8 8 7 10 9 8 10 10 9 8 7 9 8 9 11 10 10 11 10 10 10 9 10 10 10 9 9 9 7 6 5 6 5 6 6 5 5 3 2 2 2 2
9 9 13 11 13 15 14 12 9 5 11 16 12 6 19 12 17 20 21 25 24 17 10 5 6 4 11 21 19 7 16 13 12 17 20 19 16 16 18 19 16 12 12 13 12 8 6 9 11 7 7 9 10 11 9 9 9 9 11 11 11 13 12 10 10 10 10 10 10 10 10 9 8 8 8 7 5 5 4 5 5 4 3 3 2 2 2
9 11 10 12 6 11 5 11 11 12 16 17 14 9 14 22 17 16 19 25 24 11 7 11 12 14 17 24 4 13 16 19 20 21 21 18 16 16 18 17 13 10 7 5 5 8 11 14 13 10 9 10 11 12 10 8 9 11 14 14 11 8 8 10 10 10 9 10 9 10 10 8 7 7 6 6 6 7 5 4 4 4 3 2 3 2 1
10 14 6 2 6 3 2 12 16 17 17 15 13 16 22 2 18 18 17 18 15 11 15 13 14 18 21 23 13 10 7 8 12 16 17 17 18 18 18 19 11 6 7 11 14 16 16 15 8 9 9 10 11 10 9 10 12 16 12 7 9 10 9 9 10 10 9 10 11 9 8 8 7 6 6 7 6 6 6 4 4 4 3 3 3 2 1
11 9 10 9 5 5 7 6 18 16 14 12 18 16 2 10 7 13 16 18 18 15 15 13 16 18 20 24 15 2 5 12 15 15 12 9 9 10 10 7 4 6 5 7 8 7 6 5 6 8 10 11 12 9 9 13 18 11 8 9 9 10 11 11 10 10 9 8 8 7 7 7 7 6 5 5 6 6 4 5 6 5 4 3 3 2 1
3 3 6 3 11 4 15 15 9 11 13 10 6 3 1 3 6 7 8 13 14 10 12 13 16 18 18 15 13 10 9 8 13 13 8 8 12 13 13 9 6 7 8 10 11 12 8 6 7 9 10 12 10 11 13 19 10 8 9 10 11 11 11 11 10 9 9 9 8 7 7 7 8 7 6 6 5 5 6 5 6 5 5 4 4 3 2
7 8 10 7 3 3 7 20 13 12 3 1 3 6 6 1 3 7 6 7 8 7 10 12 14 16 16 15 12 11 9 10 14 13 11 9 8 9 8 8 7 6 8 8 9 8 5 6 8 10 13 13 12 13 18 6 8 8 9 9 10 10 10 10 9 9 8 8 7 6 8 7 7 7 7 6 5 5 5 5 5 5 4 4 4 3 2
4 4 1 1 1 3 6 2 3 8 5 1 2 2 4 4 5 5 6 7 9 10 11 12 12 9 11 16 18 15 13 12 14 15 17 15 10 8 8 9 5 6 10 11 11 9 7 8 8 9 10 14 14 16 10 9 10 12 11 11 11 11 10 10 10 9 8 8 8 7 8 8 8 8 8 7 7 5 6 5 6 5 5 4 4 4 3
3 7 8 5 3 2 6 2 1 2 1 2 2 2 1 4 3 6 5 6 7 8 8 8 7 10 12 13 15 11 7 8 11 9 8 8 6 6 6 7 8 10 9 8 8 11 9 8 9 9 10 9 13 15 7 9 10 11 12 13 12 11 10 10 10 10 10 8 8 8 8 7 7 6 8 8 7 6 6 6 6 6 6 5 4 4 3
4 6 7 11 7 2 6 6 6 3 3 1 0 0 1 4 4 5 5 5 3 1 1 8 9 10 10 8 8 4 4 8 11 10 10 10 8 9 10 13 8 6 7 8 9 10 11 7 7 7 9 9 9 4 10 9 10 11 12 12 11 10 11 10 9 10 11 9 8 8 8 6 6 7 7 7 7 7 6 6 6 6 6 6 5 4 4
5 8 1 1 1 4 7 7 6 6 5 6 3 4 4 5 4 1 2 0 4 3 3 7 6 10 6 4 9 7 6 8 8 9 9 10 8 6 6 5 5 6 6 9 10 9 10 8 8 8 8 8 5 6 7 9 10 11 11 12 12 11 11 10 10 10 10 10 10 8 8 8 8 8 7 7 7 7 8 7 7 7 6 6 6 7 7
7 7 6 7 4 6 6 4 4 7 7 5 9 9 8 5 6 8 6 4 6 4 7 3 4 5 11 7 7 7 6 5 7 9 10 9 8 6 6 6 6 10 10 10 11 10 11 7 7 7 7 5 5 8 9 9 11 12 11 10 9 10 10 9 9 8 8 9 9 8 8 7 5 4 7 6 6 4 2 2 4 5 5 6 6 5 6
7 9 6 3 0 6 5 5 8 8 10 9 10 9 8 9 8 9 10 14 5 4 5 4 5 7 10 8 4 6 7 8 8 6 6 6 6 6 5 3 5 6 7 8 8 9 6 5 7 8 7 6 6 7 9 10 11 13 12 10 10 10 9 9 8 9 8 8 7 8 7 7 7 4 5 5 5 6 3 2 4 6 7 5 6 5 4
10 4 4 6 8 7 5 7 7 9 8 6 9 11 11 12 11 9 8 9 14 12 8 7 7 8 8 11 3 4 6 9 8 6 5 6 6 7 5 5 6 8 7 5 5 6 6 4 5 5 5 5 6 7 8 9 11 12 13 11 9 9 9 9 9 9 9 8 8 7 7 7 6 7 6 4 4 4 6 5 5 4 4 6 7 7 6
12 2 4 4 4 6 3 5 7 8 8 7 10 10 9 9 11 12 10 10 11 12 13 10 7 8 7 8 5 8 7 8 7 6 5 5 5 4 5 8 7 7 7 8 10 9 5 5 5 5 5 5 6 6 6 7 8 11 12 12 12 11 9 8 10 9 8 8 9 8 7 6 7 7 7 8 6 6 8 8 8 8 8 8 7 6 6
9 2 3 5 7 10 4 6 7 8 6 6 7 9 11 11 11 10 11 12 8 10 11 13 14 6 8 8 7 9 8 6 6 6 5 4 5 5 6 6 9 10 9 6 4 4 5 5 5 4 6 5 4 5 6 7 8 10 10 10 11 10 9 9 9 10 9 9 8 8 9 9 8 8 9 9 10 8 5 7 10 10 10 10 9 9 8
8 5 7 7 5 7 0 1 3 2 3 4 6 6 9 10 11 9 10 11 12 10 10 10 11 9 5 7 7 8 6 8 6 3 3 5 4 4 7 10 7 3 3 4 3 4 4 4 4 4 4 3 2 2 3 5 7 9 9 9 10 10 10 11 11 10 9 9 9 8 7 7 8 8 8 8 8 10 11 8 6 7 9 10 10 9 10
7 1 5 12 14 16 6 7 9 5 7 9 11 12 11 10 12 11 10 8 7 8 8 9 8 6 3 6 6 5 7 5 0 4 5 5 7 8 5 2 4 5 6 6 5 5 6 6 5 5 5 3 1 2 4 5 6 6 6 7 7 8 11 9 8 9 8 8 8 8 8 8 9 8 8 7 8 9 10 10 9 8 5 4 7 10 7
10 7 4 9 13 12 6 5 6 5 5 6 6 8 11 8 8 9 11 12 10 8 9 7 7 6 7 5 4 5 1 3 8 5 5 9 5 2 3 4 4 6 6 6 6 6 6 6 6 7 6 2 1 3 5 7 8 8 8 8 8 8 7 8 7 6 7 7 7 8 8 8 7 7 7 7 8 7 7 7 8 8 5 3 2 3 10
17 14 11 12 15 11 6 7 10 7 6 6 5 6 6 7 11 11 12 13 11 8 8 9 6 6 7 5 5 7 6 6 6 9 7 3 2 3 3 4 4 4 6 6 6 6 5 5 5 6 5 1 1 4 5 7 8 9 9 8 8 8 7 7 6 6 6 6 6 6 6 6 7 7 6 6 7 7 7 7 7 6 6 4 4 5 6
18 15 12 15 17 12 9 12 14 12 9 6 6 8 7 5 9 12 14 13 10 10 13 8 3 6 5 4 6 8 9 10 7 2 3 2 2 3 4 5 7 5 4 4 5 4 3 3 2 3 1 1 1 2 5 6 7 8 8 8 8 9 8 8 7 7 7 6 6 7 7 6 6 6 7 7 7 7 8 7 7 7 7 6 5 6 7
12 8 8 10 12 10 13 17 16 14 11 8 6 8 9 6 8 11 14 14 11 10 10 7 6 5 5 7 4 2 1 3 4 4 3 3 3 3 3 5 7 8 7 6 5 5 5 4 3 2 2 3 1 1 4 5 7 7 7 7 7 9 11 11 8 7 7 7 7 7 6 6 6 7 7 7 7 7 7 7 7 7 7 6 7 7 5
12 9 9 9 9 11 13 13 14 14 14 9 7 10 12 12 13 16 15 14 14 11 8 6 6 9 5 3 4 4 4 4 5 5 4 4 3 3 2 2 3 6 6 7 6 5 5 6 6 1 2 1 1 1 3 5 6 8 8 7 8 8 9 11 8 8 7 7 6 7 6 7 6 6 7 7 7 7 7 7 7 6 7 7 7 5 3
9 13 13 15 14 10 10 11 11 13 11 10 12 12 12 8 8 11 11 9 8 8 7 9 6 3 5 6 6 6 6 5 5 5 5 5 4 4 4 5 6 7 7 6 6 5 4 5 2 2 2 2 3 3 3 4 5 7 7 7 7 8 8 8 8 8 7 7 6 6 6 6 6 6 7 7 7 7 7 7 7 7 7 7 6 3 2
11 15 11 5 2 8 12 14 9 12 12 10 9 9 9 9 9 9 9 7 6 8 8 6 3 5 6 7 7 7 8 8 5 5 5 6 7 6 6 7 7 9 8 7 7 6 5 4 4 3 3 4 4 4 4 4 5 6 6 7 8 8 8 7 8 7 7 7 7 6 6 7 6 6 6 7 6 7 7 7 8 7 7 6 5 3 6
8 10 10 9 6 6 6 6 8 8 7 7 9 9 8 8 7 9 8 6 9 8 2 4 5 6 6 6 7 7 8 7 6 8 8 9 7 6 8 10 10 10 11 10 7 7 4 4 4 4 5 6 6 5 5 4 4 6 5 6 7 7 7 7 7 6 7 7 6 7 7 7 6 6 6 7 6 7 7 7 6 6 6 6 4 4 4
7 8 7 7 8 7 8 7 6 7 9 9 10 11 11 10 9 9 9 8 4 4 6 6 6 6 6 7 7 8 6 5 7 9 10 6 6 6 8 10 11 13 11 9 6 5 4 5 7 6 5 6 7 7 6 5 5 6 6 7 7 7 7 7 7 7 6 6 7 7 7 7 7 7 7 6 6 6 6 6 6 5 5 5 4 4 4
7 9 8 5 6 8 9 7 6 6 8 9 9 10 13 12 10 8 5 3 3 5 7 8 7 8 7 4 4 5 5 7 9 10 9 7 7 7 7 8 8 10 9 9 3 4 4 4 5 7 6 6 7 7 7 9 7 7 7 7 7 7 7 7 6 7 7 6 7 7 8 7 7 6 6 5 5 5 5 6 6 5 4 4 3 3 3
10 8 8 7 5 7 8 8 5 5 7 9 9 8 8 9 7 4 3 2 2 3 5 7 7 7 7 7 7 7 8 8 8 9 9 9 8 10 7 7 5 4 5 3 1 3 3 5 6 7 6 6 6 6 8 11 9 8 7 7 7 7 7 7 7 7 7 6 7 6 6 6 6 6 5 5 4 4 4 4 4 4 3 3 3 3 3
10 7 6 6 5 5 5 5 4 4 3 5 7 6 5 3 3 1 0 0 1 2 5 7 9 10 9 10 9 8 8 9 9 10 9 8 7 10 8 5 5 6 5 4 4 3 4 5 6 6 7 6 7 7 9 11 10 8 7 7 7 7 7 7 7 7 7 6 6 6 6 5 5 4 4 3 3 3 4 4 4 4 3 3 3 3 3
9 8 9 7 6 6 4 4 4 5 6 3 3 4 5 2 1 0 1 2 1 1 4 7 9 9 9 9 11 9 8 9 9 10 11 12 13 12 9 7 6 5 6 6 5 5 6 7 6 6 6 5 6 6 6 8 8 7 7 7 7 7 6 6 7 7 6 6 6 6 5 4 4 4 4 3 3 4 3 3 3 3 4 3 4 2 2
10 10 8 7 6 5 4 4 4 4 5 6 4 3 3 1 1 2 2 2 2 3 3 4 6 8 9 12 12 11 10 9 10 10 11 11 11 8 12 9 3 3 4 5 5 5 6 5 4 4 4 5 6 6 7 8 7 6 6 6 6 7 7 8 9 8 6 5 5 4 4 4 4 4 4 4 3 3 3 3 3 3 4 3 2 2 1
11 10 8 7 6 5 5 5 3 3 5 6 7 5 2 1 3 3 2 4 5 6 7 7 7 10 11 11 11 11 11 10 10 9 8 6 7 9 11 6 5 3 6 7 7 7 6 6 6 5 5 5 5 8 7 5 6 8 8 8 8 8 7 5 5 5 4 4 4 4 4 4 4 4 4 3 3 3 3 4 3 3 2 2 1 1 1
12 9 8 7 5 5 4 3 2 2 3 6 8 7 3 2 5 6 6 7 7 9 10 10 11 12 12 12 13 12 10 10 12 10 10 10 11 8 6 8 6 5 8 6 6 6 6 5 5 5 7 6 5 8 7 5 5 5 4 5 4 5 5 5 5 4 4 4 4 4 4 3 3 4 4 3 3 3 3 3 2 2 2 2 1 1 1
11 8 6 5 5 4 4 3 3 3 4 6 6 5 5 4 4 7 8 9 9 9 10 10 10 10 10 11 12 11 8 8 8 7 9 9 10 9 8 5 6 7 9 6 6 5 5 5 6 7 10 10 10 8 5 5 4 4 4 4 4 4 5 5 5 4 4 4 4 3 3 3 3 3 3 3 3 3 3 2 2 2 2 2 1 1 2
10 7 5 5 5 4 4 3 3 3 3 3 7 11 10 10 11 9 10 11 11 10 10 10 10 9 9 8 8 8 7 6 4 2 8 7 8 4 3 3 6 6 7 8 6 6 5 6 8 11 10 11 10 8 5 5 5 5 5 5 4 4 4 4 4 4 4 3 3 3 3 3 2 3 3 3 2 2 2 3 2 2 2 2 2 2 3
10 9 8 5 4 4 3 2 2 3 5 9 11 11 13 12 13 13 13 17 15 13 12 12 13 12 10 10 10 11 10 7 7 8 7 4 5 6 6 3 5 6 9 9 6 5 6 11 12 11 11 11 9 6 5 5 5 4 5 5 4 4 4 3 3 3 3 3 2 2 2 2 2 2 2 3 2 3 2 2 3 2 2 3 3 3 3
10 9 10 9 8 7 5 3 3 4 6 10 10 8 7 8 11 11 11 17 17 13 11 10 13 14 12 11 9 8 9 9 8 8 7 7 9 8 7 7 8 8 7 5 5 5 4 6 9 11 11 11 8 5 5 5 5 4 4 4 4 3 3 3 3 2 2 2 2 2 2 2 2 1 2 2 2 2 2 2 2 3 3 3 2 3 3
8 8 9 10 10 10 11 12 9 7 8 8 6 5 5 6 8 9 8 8 9 10 10 8 7 9 13 12 7 6 3 3 12 7 5 5 5 6 5 4 5 8 9 9 9 9 12 11 11 11 10 9 6 5 5 4 4 4 3 3 3 3 2 2 2 1 1 1 1 1 0 1 1 2 2 2 3 3 3 3 3 3 3 3 4 4 4
9 7 7 9 10 11 9 7 7 7 7 5 7 6 6 7 8 8 8 11 12 9 9 10 12 10 8 8 8 5 6 7 4 7 4 4 4 5 5 7 8 7 5 5 5 4 8 10 9 9 8 6 5 4 4 4 4 3 3 2 2 2 2 1 1 1 1 0 0 0 1 1 1 1 3 2 2 3 3 3 3 3 3 3 3 4 4
7 6 6 6 7 7 7 5 5 5 5 6 6 5 4 5 7 6 6 6 6 7 7 7 7 7 7 6 6 7 7 9 10 9 7 7 7 5 5 5 6 7 6 4 5 4 5 8 8 7 4 3 4 4 3 3 3 3 2 2 2 1 1 1 1 1 2 1 1 1 2 2 2 2 3 3 3 3 3 4 3 4 5 5 5 4 3
5 6 5 5 5 5 7 6 5 5 5 4 4 5 5 6 6 5 6 6 5 7 7 7 7 7 6 6 7 7 7 7 8 7 6 6 6 6 6 5 5 5 5 4 4 4 3 2 3 4 4 3 2 3 3 2 2 2 2 2 1 1 1 1 1 1 1 2 2 2 2 2 2 2 3 3 3 3 3 4 4 4 4 4 5 5 4
6 4 3 4 4 5 5 6 7 6 6 5 5 4 5 5 5 6 7 8 7 6 5 6 8 7 6 6 6 7 7 7 6 6 6 6 5 5 6 5 4 4 5 4 3 3 3 3 2 2 3 3 2 2 1 2 1 1 1 1 1 1 1 2 2 2 2 2 2 2 3 3 2 3 3 3 4 4 4 4 4 4 4 4 5 4 4
Wind_Direction
162 140 157 169 182 190 189 191 184 192 187 195 203 219 228 152 189 231 228 186 222 223 225 237 229 208 202 218 225 218 219 249 273 276 250 246 246 256 247 240 233 233 233 227 227 227 227 223 225 222 219 222 222 225 220 204 195 201 185 178 185 185 187 192 193 176 162 146 119 134 148 150 172 196 171 147 144 153 160 157 163 185 186 190 194 221 303
160 169 170 170 181 191 195 200 199 194 191 199 204 216 220 207 220 236 248 197 229 226 206 229 241 217 202 231 211 70 158 222 223 220 233 232 236 236 236 234 235 232 231 219 225 224 225 220 221 215 215 216 213 209 210 200 202 202 178 188 187 194 198 195 174 164 157 149 174 184 179 178 178 167 153 150 126 109 95 102 109 118 118 69 51 17 346
184 193 161 168 183 187 195 200 200 196 199 208 216 226 232 225 248 254 252 241 248 242 168 216 230 269 264 201 211 229 241 243 237 233 238 241 235 233 238 241 239 238 225 220 229 225 224 218 215 210 212 212 207 213 209 201 204 196 183 185 194 195 199 181 168 164 166 174 170 169 174 166 160 157 157 149 136 130 121 107 106 96 113 124 127 128 159
196 216 177 176 181 189 195 198 196 193 193 206 211 217 216 202 215 227 239 248 252 241 160 199 195 210 232 255 259 241 236 237 242 244 239 237 245 245 236 231 234 237 218 217 219 220 218 217 211 208 208 204 193 213 203 204 198 179 187 190 195 196 188 172 173 174 168 170 168 168 160 171 167 160 148 148 153 152 145 140 143 128 114 148 156 151 146
198 197 178 175 160 159 207 214 199 194 199 204 207 216 215 211 211 225 230 235 234 221 145 206 206 197 215 220 232 252 265 264 248 251 266 270 263 249 242 233 229 226 213 211 214 217 216 213 208 212 198 183 205 208 201 202 160 180 191 191 191 191 182 176 179 169 165 168 168 165 178 168 161 153 157 159 159 158 172 171 142 137 164 148 159 176 164
175 153 144 142 158 199 211 203 201 192 197 200 207 215 217 210 205 223 226 239 233 127 193 218 207 207 214 213 228 225 231 243 255 257 256 258 258 255 248 238 234 233 215 217 221 219 215 212 207 200 182 193 208 200 184 155 176 185 186 190 188 189 179 182 175 165 167 168 167 174 167 161 159 162 171 183 179 173 147 147 156 157 164 173 189 187 184
152 139 134 173 207 217 214 217 187 200 205 199 211 221 218 214 216 227 240 243 235 185 218 205 216 214 221 223 228 233 230 215 217 227 231 237 245 245 241 238 236 233 214 211 220 225 231 223 210 171 196 214 165 144 166 175 182 179 188 181 186 184 184 181 171 169 170 167 170 167 167 164 168 176 183 171 164 173 168 170 170 180 181 188 204 178 163
101 159 169 193 221 211 239 134 163 174 182 209 210 236 231 221 214 214 230 239 244 225 232 212 230 215 236 251 240 232 222 202 213 221 227 237 240 243 237 219 228 226 213 210 211 216 218 205 197 191 198 182 171 181 161 176 176 182 178 182 187 181 188 185 178 176 170 168 167 165 168 169 174 182 179 177 172 173 165 177 186 148 197 171 177 175 171
163 175 177 208 54 42 135 147 170 157 194 199 195 210 232 223 217 217 237 244 241 237 237 204 87 314 346 282 264 233 212 227 236 219 223 227 233 235 245 226 228 223 215 210 212 207 202 195 194 200 192 171 178 159 171 180 174 175 175 189 193 189 192 186 179 175 171 166 168 169 171 173 182 182 178 176 179 164 163 175 174 189 189 187 166 143 157
168 164 184 209 231 227 208 214 194 194 196 159 165 213 266 151 200 207 220 233 234 232 237 129 153 68 333 275 262 219 163 207 218 229 236 238 232 234 239 245 235 234 226 219 222 205 198 195 209 205 181 174 168 172 179 170 169 179 183 202 196 189 192 185 178 173 171 166 171 174 174 181 183 184 180 173 175 174 171 173 188 194 180 167 151 143 162
168 183 184 194 206 230 217 199 161 132 111 118 110 161 251 223 190 205 213 232 236 227 219 159 138 178 240 250 258 120 173 196 204 216 227 226 226 228 231 238 238 223 217 206 202 191 185 206 221 202 177 167 166 185 184 179 177 180 201 205 192 193 189 177 173 173 171 170 175 176 179 183 180 178 179 177 170 170 178 178 178 164 163 169 160 138 165
180 170 187 203 204 232 226 139 154 142 124 115 118 199 252 240 176 200 207 225 233 216 188 164 186 205 233 248 221 167 183 193 205 213 223 225 225 232 237 244 237 229 213 176 166 182 198 215 212 182 170 170 184 188 191 169 179 200 210 207 191 175 167 169 171 172 174 172 176 177 180 179 176 177 168 160 168 172 178 173 160 157 164 166 156 159 156
178 182 190 18 281 269 216 151 141 148 129 130 174 208 235 145 149 203 197 222 227 202 209 183 208 219 226 246 228 194 195 200 221 227 224 222 219 223 232 240 234 211 197 190 203 201 204 210 184 165 166 174 190 196 175 175 200 214 206 167 161 168 163 167 173 176 175 177 177 180 179 174 169 162 165 165 163 168 166 158 141 141 155 154 141 143 160
181 181 185 217 262 236 152 170 146 143 133 190 201 222 108 134 184 190 188 205 218 208 208 199 216 230 234 241 248 184 212 208 226 230 229 233 245 244 245 254 191 206 195 215 231 249 250 209 172 170 172 182 197 178 178 198 215 201 144 160 160 162 170 174 175 175 175 171 171 172 164 157 160 162 164 157 160 160 159 152 147 143 150 144 127 143 183
47 122 194 130 231 231 152 153 160 175 175 216 196 85 186 158 177 166 199 206 223 196 213 214 220 234 247 251 255 236 227 225 245 247 241 228 226 234 239 238 223 186 203 212 216 221 214 179 168 178 177 190 191 188 191 214 198 140 153 157 167 167 168 170 174 173 170 168 168 164 158 159 156 156 154 155 155 154 155 148 142 144 152 146 139 147 164
156 165 186 201 226 38 158 146 176 202 178 235 180 135 203 308 126 166 184 219 222 201 203 213 226 233 242 256 258 251 237 227 244 248 246 242 238 243 248 240 225 194 216 219 225 230 199 184 183 182 181 194 196 192 213 189 128 143 148 165 160 164 168 168 165 165 163 161 157 152 155 157 153 152 156 155 152 158 156 149 145 149 151 145 140 147 165
175 203 184 131 244 233 164 68 21 165 204 130 5 158 165 165 227 180 168 207 218 213 210 216 219 232 235 238 242 240 235 226 234 238 239 238 235 231 236 243 218 191 211 214 220 224 211 198 197 192 195 194 198 206 208 140 162 158 162 160 163 166 168 164 163 157 152 157 157 155 157 156 157 159 155 159 157 164 156 155 157 157 163 158 159 162 157
273 268 245 264 317 273 276 291 28 23 325 323 48 42 314 256 208 178 190 216 217 221 208 205 232 219 234 231 246 249 248 245 250 256 269 269 239 211 216 238 226 216 215 216 207 217 218 203 197 198 204 202 200 214 159 165 162 164 157 160 163 167 162 161 158 154 151 151 153 154 155 159 161 164 158 162 161 162 163 163 165 161 163 161 156 157 162
152 242 255 237 228 244 290 296 296 303 279 245 228 53 213 262 240 217 234 247 273 325 229 214 224 234 233 254 270 288 258 255 254 251 250 255 239 218 219 225 220 228 210 214 219 218 223 208 201 202 204 211 213 154 166 163 159 157 161 159 160 158 161 156 154 157 158 161 155 154 155 155 159 162 161 162 164 164 167 166 167 164 160 161 159 155 174
194 247 348 303 136 187 239 252 273 286 304 313 273 218 247 280 307 252 246 239 281 201 219 218 238 263 271 236 249 253 243 245 259 257 250 253 262 249 246 277 237 240 227 224 224 216 221 202 196 198 202 205 184 160 156 157 155 154 158 162 161 165 161 163 162 164 161 155 157 160 164 165 166 166 169 167 168 171 174 174 166 168 162 164 166 171 188
248 284 284 265 343 330 290 299 293 267 271 265 286 282 274 271 300 307 297 212 226 193 230 191 193 257 273 240 243 250 261 259 253 247 245 244 243 231 211 220 189 208 210 216 218 208 216 187 185 188 194 181 166 163 161 157 157 155 157 156 156 158 158 156 161 159 159 162 167 165 163 163 161 157 161 164 152 140 124 135 153 154 161 170 184 186 161
257 233 246 117 252 271 276 212 218 239 244 242 258 278 289 280 274 271 283 293 265 211 242 215 198 227 269 275 200 239 244 252 256 257 247 240 226 223 220 192 207 220 222 217 214 214 208 175 183 181 178 172 168 164 159 162 160 157 154 151 154 162 163 163 157 156 156 162 163 164 163 160 149 105 48 93 124 135 190 252 148 155 152 178 190 161 150
248 221 157 176 198 229 207 200 226 222 230 227 242 250 257 271 273 267 268 274 291 289 261 196 207 230 239 272 256 236 256 254 251 250 246 242 234 222 189 179 214 215 224 217 209 211 195 171 176 173 168 171 167 168 168 166 164 155 152 153 158 161 163 169 165 158 158 160 166 165 164 155 149 138 115 56 60 133 147 154 154 144 121 117 126 137 135
253 183 188 199 193 233 211 201 205 219 226 217 237 246 249 251 257 266 257 250 252 265 281 275 205 218 235 245 231 241 250 257 262 258 240 241 235 212 194 202 203 203 212 205 205 203 168 171 173 171 166 173 173 166 165 162 155 153 158 159 163 166 165 160 157 161 164 166 163 164 157 150 144 141 137 127 92 66 95 115 114 114 116 118 123 125 121
257 148 198 217 235 258 219 198 210 215 225 203 225 246 246 249 254 247 252 261 244 241 256 267 272 218 213 235 216 230 233 246 235 229 225 219 214 194 204 204 210 207 211 202 181 150 154 160 157 162 164 176 170 166 161 156 150 154 160 160 158 158 161 157 159 161 163 166 168 163 160 157 155 151 152 150 140 123 85 92 103 102 100 99 102 104 101
282 313 302 282 285 269 344 4 298 239 228 221 247 265 259 246 248 254 252 244 255 250 239 251 264 266 191 231 229 234 238 246 244 184 180 208 216 214 214 219 211 163 144 136 129 128 135 147 151 152 160 168 172 167 153 148 151 155 158 161 159 161 164 163 160 165 167 167 163 162 158 152 152 154 162 160 149 142 134 127 98 73 61 65 71 72 74
288 321 326 312 291 280 259 235 258 216 211 219 218 235 247 251 248 249 255 265 260 270 265 260 248 268 228 225 231 224 221 248 140 208 216 217 217 222 217 158 152 147 137 132 133 137 141 146 149 158 162 175 175 160 155 146 141 140 142 140 137 139 143 150 161 160 160 157 156 153 153 155 158 161 162 163 153 150 151 146 145 134 124 60 53 67 72
263 255 201 246 266 272 292 277 267 285 268 249 239 245 253 272 295 293 284 279 275 265 263 260 256 249 246 235 190 239 263 198 219 219 210 223 214 176 136 134 133 139 136 136 139 142 148 158 158 161 172 192 188 178 161 150 145 145 144 142 141 143 147 146 143 146 147 148 148 151 154 155 151 148 147 146 142 139 129 124 126 127 113 96 96 42 61
257 250 238 235 247 260 293 300 291 277 265 271 268 278 289 286 268 268 269 265 264 271 274 264 233 227 234 227 186 215 216 221 223 220 214 188 155 120 109 110 110 110 126 129 132 145 153 159 165 164 182 219 200 178 160 149 149 148 147 146 142 141 141 142 140 137 135 134 136 135 131 133 135 135 133 127 122 120 118 121 119 109 110 105 85 58 48
247 247 247 254 258 255 263 271 269 273 274 260 271 271 265 263 276 271 267 271 268 258 251 255 237 240 207 203 210 207 210 218 214 168 121 116 100 110 120 116 97 81 94 131 144 136 135 135 145 152 148 336 263 186 154 146 141 143 140 140 142 143 142 139 133 130 127 129 129 127 128 131 133 131 128 126 124 122 122 119 116 113 104 87 83 81 66
252 253 244 255 265 267 256 258 262 267 269 272 248 258 270 246 246 263 268 268 268 259 260 246 238 233 207 214 200 181 89 90 105 119 108 98 97 109 137 153 160 184 180 159 128 125 129 119 103 88 343 339 335 146 139 135 133 128 123 120 118 121 125 127 128 131 131 130 133 132 133 131 136 131 128 124 115 109 105 105 100 96 94 89 81 74 53
269 269 263 255 248 251 255 256 257 256 255 250 254 251 247 248 252 253 256 261 262 260 271 259 233 230 201 142 126 123 120 116 109 108 106 95 85 65 47 30 57 87 103 114 115 118 125 125 121 90 341 2 40 75 117 129 134 132 134 131 127 128 127 126 124 125 128 130 130 131 139 135 127 120 114 113 118 119 117 111 106 103 99 91 80 62 40
255 270 270 255 253 250 255 253 246 249 241 242 240 245 255 248 245 257 260 263 280 280 261 253 243 171 143 140 133 127 123 116 108 106 111 103 80 53 47 53 64 76 72 52 56 58 84 104 92 12 27 50 77 85 112 130 129 131 129 129 126 125 127 125 122 120 116 119 123 130 127 120 122 116 116 117 115 112 109 108 109 106 99 95 89 75 65
239 241 266 321 358 268 261 264 254 245 247 246 247 249 252 249 245 251 258 259 258 265 256 244 175 147 146 144 144 140 137 130 143 154 142 119 99 94 85 79 78 73 63 59 57 46 33 29 21 32 31 53 59 70 86 102 116 117 126 125 127 127 123 122 122 119 122 119 122 115 111 110 103 107 110 109 107 106 107 109 107 106 100 96 93 72 66
307 298 308 297 298 291 296 287 306 313 308 291 279 270 262 266 257 250 248 240 241 243 212 141 146 146 145 145 149 160 172 176 164 147 130 95 103 101 113 108 101 92 73 42 40 30 26 20 20 36 54 59 56 50 54 72 85 102 96 102 101 104 106 109 109 115 119 122 115 109 100 97 96 93 93 95 97 100 100 99 101 103 106 102 95 78 64
301 297 295 294 290 289 294 291 284 280 282 279 281 287 289 280 276 266 249 235 208 150 144 147 144 142 148 158 164 168 166 134 128 128 115 109 115 118 118 118 118 111 109 84 44 19 30 32 42 50 65 69 65 56 56 64 71 78 88 90 93 91 89 91 95 95 93 103 99 96 97 99 97 92 92 92 92 93 99 100 101 102 105 106 103 86 70
306 293 289 273 274 286 286 283 275 272 270 271 277 282 282 279 263 268 282 257 190 178 156 144 144 158 168 152 128 109 109 127 132 128 125 125 123 121 119 118 120 128 122 96 45 33 44 61 52 54 68 76 77 75 71 77 84 86 91 93 99 107 110 109 102 102 97 89 95 99 97 94 88 87 85 88 95 98 99 102 102 101 97 95 89 90 80
296 292 288 280 275 275 280 282 279 269 273 275 262 256 267 278 280 269 252 242 209 169 155 152 149 134 119 115 111 117 119 119 118 115 122 132 138 123 107 106 103 100 99 73 49 54 62 66 63 74 73 72 74 80 83 86 89 89 91 94 99 102 102 103 100 96 95 93 91 93 95 97 101 98 93 90 93 94 97 96 95 92 90 87 92 92 96
303 291 280 295 286 279 279 284 295 278 268 268 284 286 287 301 294 302 47 14 236 158 137 130 125 126 135 128 118 112 121 126 125 131 123 107 98 100 94 73 70 64 75 91 87 59 62 62 66 74 73 71 72 74 80 86 91 93 94 98 97 98 100 100 103 101 97 100 99 99 97 94 89 90 96 91 86 85 87 87 91 90 87 91 85 87 83
303 302 298 297 293 287 287 285 290 295 293 274 279 278 298 327 319 75 90 72 39 110 141 139 139 139 139 132 115 109 123 124 121 117 117 118 109 98 93 65 46 53 77 79 71 67 58 62 64 72 72 66 70 76 73 82 87 90 96 99 104 102 103 107 109 109 107 100 98 97 81 90 94 96 91 86 86 84 71 80 86 92 93 76 83 91 98
302 306 305 296 289 289 281 273 275 298 306 306 310 300 310 309 252 117 120 122 91 99 115 128 127 118 124 129 119 109 116 114 116 119 128 123 116 118 112 103 75 54 74 78 81 78 65 57 31 51 45 59 58 76 86 80 85 92 99 102 106 108 107 99 81 68 87 95 92 97 105 105 102 95 93 91 84 85 91 92 97 88 92 97 97 125 141
311 308 301 290 283 291 288 297 295 310 336 333 318 318 332 31 112 129 107 86 81 76 81 72 92 114 116 112 110 108 112 117 116 98 82 92 115 134 113 97 101 96 93 83 78 78 73 73 57 48 45 45 30 62 71 76 67 59 67 67 68 58 69 80 85 84 80 79 85 90 91 96 101 108 108 106 107 104 106 91 84 91 96 123 141 201 170
307 309 299 299 292 296 319 329 347 335 329 340 332 322 326 69 100 97 90 85 90 94 90 95 97 100 108 116 115 106 101 107 104 97 83 62 48 40 78 111 111 106 96 84 81 76 68 63 66 61 50 55 59 54 51 44 55 61 62 68 66 75 68 74 81 88 83 92 94 88 93 98 109 116 120 114 111 101 96 103 121 144 151 179 210 217 246
316 315 320 310 310 329 345 350 354 358 13 0 353 353 24 53 74 100 103 101 95 93 103 104 103 103 106 113 120 122 121 121 121 112 104 96 76 52 46 74 99 93 90 91 87 75 71 59 67 69 66 64 60 62 70 62 56 63 62 70 70 70 79 80 76 77 86 89 93 105 108 106 106 107 112 120 122 104 127 136 167 179 202 202 199 204 215
326 343 343 11 24 28 14 357 5 10 8 12 39 42 40 58 62 70 89 93 91 90 90 95 98 102 103 97 94 92 83 72 75 125 113 114 104 88 81 63 93 96 94 95 91 87 77 73 75 76 74 72 69 66 65 65 64 62 63 68 68 66 66 74 76 73 77 81 90 91 99 101 103 104 113 121 150 151 174 165 200 199 185 204 204 210 240
339 348 358 5 25 48 41 57 74 84 85 80 60 43 40 56 70 66 71 84 84 81 85 89 92 90 88 91 90 83 78 70 46 16 3 1 103 131 124 95 95 100 103 97 88 91 83 81 81 79 77 71 66 65 65 65 64 65 64 67 64 67 70 68 77 79 83 87 92 98 99 115 119 132 144 149 180 167 194 196 189 196 195 192 212 210 220
350 353 5 27 34 29 40 55 70 79 77 75 62 51 15 18 53 76 79 83 83 77 72 65 65 66 70 79 86 101 101 87 55 38 44 47 64 75 93 89 88 93 92 80 79 78 97 86 82 81 80 77 71 70 69 64 65 66 70 68 66 66 70 72 69 67 78 76 93 104 120 122 135 133 148 168 183 188 192 193 190 204 210 206 230 244 247
350 356 356 20 40 47 49 55 61 51 43 38 58 53 35 48 57 59 59 64 72 70 66 63 48 49 52 52 45 36 18 94 101 63 59 69 63 67 64 69 96 92 87 84 80 75 77 87 91 86 79 76 75 77 75 74 68 74 74 75 75 72 74 83 83 81 74 81 106 97 256 177 147 123 152 160 205 179 187 194 204 207 227 226 233 241 245
10 7 16 29 33 36 39 49 46 39 42 45 51 66 68 72 74 63 64 78 74 63 65 61 60 55 52 44 41 28 49 352 38 122 107 86 81 80 69 74 75 75 70 66 72 69 70 73 79 86 80 77 75 84 83 87 89 86 87 93 87 88 82 92 104 93 90 138 232 147 244 221 225 175 192 202 205 208 223 228 235 232 232 239 247 248 243
4 19 26 22 20 21 13 13 18 21 27 16 353 12 30 81 75 51 52 42 52 70 64 54 52 51 48 31 40 48 42 58 64 71 80 77 76 82 76 65 67 71 78 77 68 72 73 72 64 66 72 78 71 74 86 94 86 96 100 99 108 101 112 128 171 193 202 215 210 217 225 229 227 233 225 208 214 221 221 234 240 245 249 253 247 246 246
5 29 32 28 33 33 18 20 6 358 359 9 33 46 48 58 50 46 48 53 68 66 68 68 55 43 28 40 45 43 51 60 66 68 73 69 69 72 78 80 67 61 64 71 63 55 60 60 56 54 58 73 83 77 79 96 110 104 109 123 124 152 161 183 188 189 208 214 226 229 226 231 229 232 229 231 234 244 247 251 249 246 242 247 248 252 253
354 8 31 53 70 62 43 28 22 23 20 12 12 34 49 44 59 49 41 29 43 53 49 78 70 27 29 40 39 43 44 51 61 63 66 69 64 65 67 69 76 58 48 57 83 63 49 53 61 73 61 58 87 109 96 93 101 130 137 144 172 183 203 218 217 222 232 235 230 236 247 244 239 240 245 249 250 250 254 251 250 251 248 247 247 251 259